UTC;Hm0;Dir;Tm;Tp
2013-12-01 00:00:00;3.86;122.5;7.3;8.7
2013-12-01 00:30:00;4.44;128.7;7.6;8.7
2013-12-01 01:00:00;4.27;122.7;7.5;10.5
2013-12-01 01:30:00;3.79;124.7;7.3;10.5
2013-12-01 02:00:00;4.09;124.2;7.7;11.1
2013-12-01 02:30:00;4.37;126.5;7.9;11.1
2013-12-01 03:00:00;5.04;128.9;8.5;11.1
2013-12-01 03:30:00;4.84;127;8.3;11.1
2013-12-01 04:00:00;5.57;124.9;8.6;11.8
2013-12-01 06:00:00;5.88;129.3;8.2;11.8
2013-12-01 06:30:00;5.85;130.4;8.3;10.5
2013-12-01 07:00:00;5.96;132.5;8.1;11.8
2013-12-01 07:30:00;5.95;128.8;8.4;11.8
2013-12-01 08:00:00;5.8;122.4;8.4;11.8
2013-12-01 08:30:00;6.46;122.5;8.9;11.8
2013-12-01 09:00:00;5.94;124.2;8.7;12.5
2013-12-01 09:30:00;6.05;125.7;8.8;11.8
2013-12-01 10:00:00;5.52;123;8.6;11.1
2013-12-01 10:30:00;5.87;121.2;9;12.5
2013-12-01 11:00:00;5.51;126.2;8.6;12.5
2013-12-01 11:30:00;5.67;126.9;8.6;12.5
2013-12-01 12:00:00;5.79;127.2;8.8;12.5
2013-12-01 12:30:00;5.88;134.7;8.5;11.1
2013-12-01 13:00:00;5.87;135.2;8.5;12.5
2013-12-01 13:30:00;5.84;134.7;8.6;12.5
2013-12-01 14:00:00;6.08;135.3;8.8;11.8
2013-12-01 14:30:00;6.48;133.4;9;11.8
2013-12-01 15:00:00;6.27;132.3;8.7;12.5
2013-12-01 15:30:00;5.96;134.7;8.3;12.5
2013-12-01 16:00:00;6.04;134.7;8.6;12.5
2013-12-01 16:30:00;6;136;8.2;9.5
2013-12-01 17:00:00;5.92;130.2;8.5;11.1
2013-12-01 17:30:00;5.75;135.8;8.5;12.5
2013-12-01 18:00:00;5.64;133.5;8.5;12.5
2013-12-01 18:30:00;5.96;134.9;8.8;11.1
2013-12-01 19:00:00;5.47;133.8;8.4;11.8
2013-12-01 19:30:00;5.78;132.4;8.5;12.5
2013-12-01 20:00:00;5.66;135.5;8.2;11.1
2013-12-01 20:30:00;5.11;132.8;7.8;10
2013-12-01 21:00:00;5.74;130;8.5;11.8
2013-12-01 21:30:00;5.49;131.1;8.6;12.5
2013-12-01 22:00:00;4.91;130.9;8.2;12.5
2013-12-01 22:30:00;4.6;131;8;12.5
2013-12-01 23:00:00;4.74;133.2;8;12.5
2013-12-01 23:30:00;4.76;132.3;8.1;11.8
2013-12-02 00:00:00;4.77;130.8;8.3;11.8
2013-12-02 00:30:00;4.13;134.1;7.8;11.1
2013-12-02 01:00:00;4.65;129.9;8.1;11.1
2013-12-02 01:30:00;3.56;134.2;7.2;11.1
2013-12-02 02:00:00;3.71;135.3;7.4;12.5
2013-12-02 02:30:00;3.96;134.6;7.7;11.8
2013-12-02 03:00:00;4.15;134.6;7.7;10.5
2013-12-02 03:30:00;4.27;133;7.9;11.8
2013-12-02 04:00:00;3.49;140.1;6.9;10
2013-12-02 04:30:00;3.71;143.1;7.1;10
2013-12-02 05:00:00;3.65;138.6;7.3;11.1
2013-12-02 05:30:00;3.63;137.6;7.1;11.1
2013-12-02 06:00:00;3.82;140.5;7.6;10.5
2013-12-02 06:30:00;3.27;134.5;7.1;11.1
2013-12-02 07:00:00;3.56;132.1;7.3;11.1
2013-12-02 07:30:00;3.14;131.1;7.1;11.1
2013-12-02 08:00:00;3.12;127.2;7.1;11.1
2013-12-02 08:30:00;3.32;129.6;7.7;11.1
2013-12-02 09:00:00;2.75;132.1;6.7;9.1
2013-12-02 09:30:00;2.84;133.7;6.8;10
2013-12-02 10:00:00;2.65;131.3;6.8;10.5
2013-12-02 10:30:00;2.44;133.4;6.6;10
2013-12-02 11:00:00;2.37;129;6.5;10.5
2013-12-02 11:30:00;2.24;128.5;6.5;10
2013-12-02 12:00:00;2.34;127.3;6.8;10.5
2013-12-02 12:30:00;2.2;127.1;6.3;8.7
2013-12-02 13:00:00;2.31;127.6;6.5;10
2013-12-02 13:30:00;2.42;125.8;6.7;10.5
2013-12-02 14:00:00;2.23;127.3;6.5;10
2013-12-02 14:30:00;2.17;126.4;6.6;10
2013-12-02 15:00:00;2.35;124.8;6.9;10
2013-12-02 15:30:00;2.26;124.9;6.7;10
2013-12-02 16:00:00;2.09;129.9;6.6;10
2013-12-02 16:30:00;2.01;131.3;6.7;9.1
2013-12-02 17:00:00;1.88;131.1;6.7;9.5
2013-12-02 17:30:00;1.71;132.5;6.5;9.1
2013-12-02 18:00:00;1.85;130.1;6.8;9.5
2013-12-02 18:30:00;1.85;132.1;6.5;9.5
2013-12-02 19:00:00;1.81;129.9;6.6;9.5
2013-12-02 19:30:00;1.71;134.1;6.3;10
2013-12-02 20:00:00;1.62;130.7;6.2;9.5
2013-12-02 20:30:00;1.8;133.7;6.6;9.5
2013-12-02 21:00:00;1.62;130.4;6.5;9.5
2013-12-02 21:30:00;1.56;134.3;6.2;10
2013-12-02 22:00:00;1.51;133.5;6.4;9.1
2013-12-02 22:30:00;1.47;133.6;6.2;9.5
2013-12-02 23:00:00;1.39;137.5;5.5;9.5
2013-12-02 23:30:00;1.37;137.4;5.6;9.1
2013-12-03 00:00:00;1.41;136.7;5.8;9.5
2013-12-03 00:30:00;1.3;134.9;5.7;9.1
2013-12-03 01:00:00;1.25;134.3;5.8;9.1
2013-12-03 01:30:00;1.22;134;5.6;9.1
2013-12-03 02:00:00;1.3;135;5.6;8.7
2013-12-03 02:30:00;1.19;133;5.5;8.7
2013-12-03 03:00:00;1.14;129.3;5.3;8.7
2013-12-03 03:30:00;1.33;126.4;5.5;8.7
2013-12-03 04:00:00;1.21;126.9;4.2;9.1
2013-12-03 04:30:00;1.29;115.4;4.1;8.7
2013-12-03 05:00:00;1.4;103.7;4.1;8.3
2013-12-03 05:30:00;1.42;90.5;4;7.4
2013-12-03 06:00:00;1.48;80.8;4;3.9
2013-12-03 06:30:00;1.43;96.8;4.2;7.4
2013-12-03 07:00:00;1.32;95;4;8.3
2013-12-03 07:30:00;1.23;127.5;4.1;6.1
2013-12-03 08:00:00;1.23;133.3;4.3;7.4
2013-12-03 08:30:00;1.22;141.6;4.4;5.9
2013-12-03 09:00:00;1.4;148.4;4.6;5.9
2013-12-03 09:30:00;1.67;161.2;4.8;5.9
2013-12-03 10:00:00;1.46;147;4.8;5.7
2013-12-03 10:30:00;1.33;130;4.6;5.7
2013-12-03 11:00:00;1.38;118.3;4.4;5.7
2013-12-03 11:30:00;1.39;118.3;4.3;5.3
2013-12-03 12:00:00;1.3;85.4;4.3;5.4
2013-12-03 12:30:00;1.22;95.7;4.2;5.3
2013-12-03 13:00:00;1.42;90;4.3;5.9
2013-12-03 13:30:00;1.43;95.1;4.3;5.3
2013-12-03 14:00:00;1.55;100.9;4.2;6.3
2013-12-03 14:30:00;1.8;99.9;4.5;5
2013-12-03 15:00:00;2.11;97.2;4.8;5.9
2013-12-03 15:30:00;2.29;99.4;5.1;6.5
2013-12-03 16:00:00;2.41;95.9;5.3;7.4
2013-12-03 16:30:00;2.47;100.7;5.4;8
2013-12-03 17:00:00;2.65;98.2;5.7;8
2013-12-03 17:30:00;2.88;99;6.3;8.3
2013-12-03 18:00:00;2.79;99.7;6.1;8.3
2013-12-03 18:30:00;2.99;101;6.5;8.3
2013-12-03 19:00:00;2.95;103;6.3;8.7
2013-12-03 19:30:00;2.99;98.5;6.6;8.7
2013-12-03 20:00:00;2.84;97.6;6.3;9.5
2013-12-03 20:30:00;2.93;97.9;6.4;8.7
2013-12-03 21:00:00;3.05;97.2;6.7;9.5
2013-12-03 21:30:00;3.08;98.2;6.6;8.3
2013-12-03 22:00:00;3.01;97;6.6;8.7
2013-12-03 22:30:00;2.95;103.4;6.5;8.3
2013-12-03 23:00:00;2.71;102.5;6.3;9.1
2013-12-03 23:30:00;2.45;101.4;5.9;9.1
2013-12-04 00:00:00;2.57;101;5.8;8.3
2013-12-04 00:30:00;2.34;96.7;5.7;8.3
2013-12-04 01:00:00;2.24;96.7;5.5;8.3
2013-12-04 01:30:00;2.26;93.7;5.6;8
2013-12-04 02:00:00;2.06;97.4;5.4;8.3
2013-12-04 02:30:00;2.1;92.8;5;8
2013-12-04 03:00:00;2.13;83.2;4.9;8
2013-12-04 03:30:00;1.96;74.4;4.7;8.3
2013-12-04 04:00:00;1.96;72.5;4.5;8
2013-12-04 04:30:00;2.04;72.9;4.6;8
2013-12-04 05:00:00;2.04;65.9;4.7;7.7
2013-12-04 05:30:00;1.96;51.1;4.5;8
2013-12-04 06:00:00;2.03;54.7;4.5;8
2013-12-04 06:30:00;1.98;57.9;4.5;7.4
2013-12-04 07:00:00;1.9;62.2;4.5;8.3
2013-12-04 07:30:00;1.84;58.7;4.5;8
2013-12-04 08:00:00;1.88;60.4;4.7;8
2013-12-04 08:30:00;1.84;55.7;4.5;7.7
2013-12-04 09:00:00;1.88;62.1;4.6;7.1
2013-12-04 09:30:00;1.82;72.6;4.7;8
2013-12-04 10:00:00;1.78;62.5;4.6;7.7
2013-12-04 10:30:00;1.84;76.7;4.9;7.4
2013-12-04 11:00:00;1.54;60.8;4.4;7.1
2013-12-04 11:30:00;1.53;65;4.3;7.1
2013-12-04 12:00:00;1.45;57.7;4.1;7.1
2013-12-04 12:30:00;1.43;51.2;4.1;7.4
2013-12-04 13:00:00;1.45;43.8;3.9;7.1
2013-12-04 13:30:00;1.33;35.9;3.7;5.6
2013-12-04 14:00:00;1.39;46.5;3.8;6.9
2013-12-04 14:30:00;1.37;45.7;3.8;6.9
2013-12-04 15:00:00;1.28;33.9;3.7;6.5
2013-12-04 15:30:00;1.2;31.2;3.6;6.3
2013-12-04 16:00:00;1.12;38.8;3.6;6.5
2013-12-04 16:30:00;1.12;40.3;3.5;6.3
2013-12-04 17:00:00;1.09;36.6;3.4;6.5
2013-12-04 17:30:00;1.07;36.1;3.4;6.5
2013-12-04 18:00:00;1.05;39.6;3.5;6.5
2013-12-04 18:30:00;0.95;34.4;3.4;6.3
2013-12-04 19:00:00;0.94;43.1;3.5;6.5
2013-12-04 19:30:00;0.89;40;3.5;6.1
2013-12-04 20:00:00;0.83;43;3.4;6.7
2013-12-04 20:30:00;0.78;35.3;3.4;5.9
2013-12-04 21:00:00;0.79;41.4;3.5;6.3
2013-12-04 21:30:00;0.69;40.6;3.3;6.3
2013-12-04 22:00:00;0.68;45.3;3.2;5.9
2013-12-04 22:30:00;0.65;50.4;3.3;6.1
2013-12-04 23:00:00;0.64;53.9;3.5;5.7
2013-12-04 23:30:00;0.65;53;3.5;5.7
2013-12-05 00:00:00;0.66;45.9;3.4;4.3
2013-12-05 00:30:00;0.65;45.4;3.4;5.6
2013-12-05 01:00:00;0.6;46;3.3;5.7
2013-12-05 01:30:00;0.54;44.6;3.3;6.1
2013-12-05 02:00:00;0.49;50.6;3.3;4.4
2013-12-05 02:30:00;0.52;58.4;3.4;5.1
2013-12-05 03:00:00;0.57;53.6;3.5;4.4
2013-12-05 03:30:00;0.53;51.4;3.4;4.7
2013-12-05 04:00:00;0.53;58.9;3.5;5.3
2013-12-05 04:30:00;0.49;59.9;3.6;5.4
2013-12-05 05:00:00;0.47;62.8;3.4;5.1
2013-12-05 05:30:00;0.46;60.7;3.5;4.4
2013-12-05 06:00:00;0.47;62.5;3.4;5.9
2013-12-05 06:30:00;0.44;60.1;3.5;5
2013-12-05 07:00:00;0.45;68.3;3.6;4.9
2013-12-05 07:30:00;0.44;70.8;3.5;5.7
2013-12-05 08:00:00;0.43;71.4;3.5;5.4
2013-12-05 08:30:00;0.43;70.7;3.5;5.3
2013-12-05 09:00:00;0.43;76.3;3.5;5.4
2013-12-05 09:30:00;0.4;70.1;3.2;5.9
2013-12-05 10:00:00;0.41;72.1;3.3;4.3
2013-12-05 10:30:00;0.42;66.9;3.4;5.1
2013-12-05 11:00:00;0.39;73.6;3.5;6.7
2013-12-05 11:30:00;0.38;79.1;3.6;6.3
2013-12-05 12:00:00;0.39;80.4;3.4;6.7
2013-12-05 12:30:00;0.41;66.6;3;6.9
2013-12-05 13:00:00;0.42;55.6;2.8;7.4
2013-12-05 13:30:00;0.47;47.7;2.8;4.3
2013-12-05 14:00:00;0.47;43.8;2.8;3.8
2013-12-05 14:30:00;0.48;41.7;2.8;6.9
2013-12-05 15:00:00;0.5;32.2;2.6;3.3
2013-12-05 15:30:00;0.53;31.6;2.7;3.2
2013-12-05 16:00:00;0.52;27.4;2.6;3.4
2013-12-05 16:30:00;0.53;23.2;2.6;3.4
2013-12-05 17:00:00;0.58;16.2;2.6;2.7
2013-12-05 17:30:00;0.62;12.4;2.6;2.9
2013-12-05 18:00:00;0.65;6.8;2.7;3.2
2013-12-05 18:30:00;0.62;5.8;2.7;3
2013-12-05 19:00:00;0.56;9.8;2.6;3.2
2013-12-05 19:30:00;0.51;14.5;2.6;2.9
2013-12-05 20:00:00;0.44;23.7;2.7;3.8
2013-12-05 20:30:00;0.39;27.6;2.8;3.6
2013-12-05 21:00:00;0.34;37.5;2.8;6.1
2013-12-05 21:30:00;0.32;44.5;2.8;3.8
2013-12-05 22:00:00;0.3;46.8;2.8;6.7
2013-12-05 22:30:00;0.29;56.7;2.9;6.5
2013-12-05 23:00:00;0.27;55.8;3;6.5
2013-12-05 23:30:00;0.25;64.3;3.1;7.4
2013-12-06 00:00:00;0.27;71.4;3.2;6.3
2013-12-06 00:30:00;0.26;77.4;3.3;6.7
2013-12-06 01:00:00;0.26;76;3.4;5.9
2013-12-06 01:30:00;0.26;89.5;3.7;6.5
2013-12-06 02:00:00;0.27;87.7;3.8;4.8
2013-12-06 02:30:00;0.28;87.7;3.8;4.4
2013-12-06 03:00:00;0.27;89.8;3.7;4.4
2013-12-06 03:30:00;0.29;82.2;3.4;4.5
2013-12-06 04:00:00;0.3;78.9;3.3;4.3
2013-12-06 04:30:00;0.3;95.8;3.3;4.2
2013-12-06 05:00:00;0.31;107.6;3.3;4.9
2013-12-06 05:30:00;0.31;112.7;3.2;3.9
2013-12-06 06:00:00;0.31;117.8;3.1;2.9
2013-12-06 06:30:00;0.3;137.3;3.2;4.2
2013-12-06 07:00:00;0.33;135.9;3.6;3.9
2013-12-06 07:30:00;0.4;159.2;3.7;3.9
2013-12-06 08:00:00;0.46;175.4;3.5;4.3
2013-12-06 08:30:00;0.39;173.3;3;3.7
2013-12-06 09:00:00;0.36;169.6;2.7;4
2013-12-06 09:30:00;0.34;149.4;2.8;4.5
2013-12-06 10:00:00;0.32;133;2.9;5
2013-12-06 10:30:00;0.29;138.4;2.9;4.3
2013-12-06 11:00:00;0.3;138.8;3.1;3.7
2013-12-06 11:30:00;0.27;138.4;3.2;4.3
2013-12-06 12:00:00;0.28;144.2;3.5;4.2
2013-12-06 12:30:00;0.41;173.3;2.6;4.5
2013-12-06 13:00:00;0.58;190.2;2.8;2.9
2013-12-06 13:30:00;0.56;191.7;2.9;2.9
2013-12-06 14:00:00;0.5;186.7;2.9;2.8
2013-12-06 14:30:00;0.39;177.9;3.1;4
2013-12-06 15:00:00;0.29;165.6;3.2;4.8
2013-12-06 15:30:00;0.28;167;2.8;3.8
2013-12-06 16:00:00;0.32;176.1;2.5;1.9
2013-12-06 16:30:00;0.32;118.9;2.5;4.7
2013-12-06 17:00:00;0.3;131.8;2.7;4.4
2013-12-06 17:30:00;0.29;131.3;2.6;5.9
2013-12-06 18:00:00;0.28;152.7;3;5
2013-12-06 18:30:00;0.27;166.8;3.1;4.3
2013-12-06 19:00:00;0.25;169.7;3.1;5.1
2013-12-06 19:30:00;0.24;168.8;3.1;5.1
2013-12-06 20:00:00;0.27;171.5;3.2;5.1
2013-12-06 20:30:00;0.3;166.6;3.2;5.4
2013-12-06 21:00:00;0.32;170.6;3;4.7
2013-12-06 21:30:00;0.29;180.4;3;5.4
2013-12-06 22:00:00;0.37;172;3.1;5.3
2013-12-06 22:30:00;0.41;177.1;2.7;5.4
2013-12-06 23:00:00;0.44;209.3;2.7;5.1
2013-12-06 23:30:00;0.43;200.3;2.8;4.9
2013-12-07 00:00:00;0.43;178.2;2.9;4.7
2013-12-07 00:30:00;0.4;170.2;2.9;4.8
2013-12-07 01:00:00;0.39;155.4;3.1;4.7
2013-12-07 01:30:00;0.35;148;3.2;5
2013-12-07 02:00:00;0.36;151.5;3.4;4.8
2013-12-07 02:30:00;0.34;156.6;3.1;4.7
2013-12-07 03:00:00;0.37;180.3;2.6;4.2
2013-12-07 03:30:00;0.38;184;2.5;4.7
2013-12-07 04:00:00;0.34;206.5;2.5;4.2
2013-12-07 04:30:00;0.35;203.6;2.5;4.2
2013-12-07 05:00:00;0.32;185.9;2.6;4.3
2013-12-07 05:30:00;0.29;174.8;2.6;4.4
2013-12-07 06:00:00;0.27;159.9;2.7;4.2
2013-12-07 06:30:00;0.28;127.3;2.7;4.1
2013-12-07 07:00:00;0.32;37.4;2.7;3.9
2013-12-07 07:30:00;0.34;32.2;2.6;3.8
2013-12-07 08:00:00;0.36;33.4;2.5;4
2013-12-07 08:30:00;0.36;23.4;2.5;4.2
2013-12-07 09:00:00;0.38;24.6;2.6;3.8
2013-12-07 09:30:00;0.38;28.7;2.7;3.8
2013-12-07 10:00:00;0.46;23.8;2.5;4
2013-12-07 10:30:00;0.7;15.3;2.7;3.1
2013-12-07 11:00:00;0.99;8.1;3;4.4
2013-12-07 11:30:00;1.3;6.2;3.5;5
2013-12-07 12:00:00;1.45;4;3.7;5.6
2013-12-07 12:30:00;1.52;3.6;3.8;5.4
2013-12-07 13:00:00;1.47;0.5;3.7;5.4
2013-12-07 13:30:00;1.43;1.7;3.8;5.3
2013-12-07 14:00:00;1.47;1.1;3.8;5.6
2013-12-07 14:30:00;1.48;1.3;3.8;5.3
2013-12-07 15:00:00;1.36;359.6;3.6;6.1
2013-12-07 15:30:00;1.26;3.2;3.5;4.9
2013-12-07 16:00:00;1.14;7.6;3.3;3.8
2013-12-07 16:30:00;1.15;8.2;3.3;3.8
2013-12-07 17:00:00;1.09;8.2;3.2;4.4
2013-12-07 17:30:00;1.13;8.4;3.3;4.2
2013-12-07 18:00:00;1.13;9.1;3.2;4.4
2013-12-07 18:30:00;1.28;5.1;3.4;5
2013-12-07 19:00:00;1.25;5.3;3.4;4.9
2013-12-07 19:30:00;1.17;8.8;3.3;4.9
2013-12-07 20:00:00;1.18;9.8;3.3;4.7
2013-12-07 20:30:00;1.29;17.9;3.6;4.8
2013-12-07 21:00:00;1.29;17.6;3.6;4.9
2013-12-07 21:30:00;1.33;15;3.6;5
2013-12-07 22:00:00;1.33;17.1;3.7;4.8
2013-12-07 22:30:00;1.29;13.2;3.8;5
2013-12-07 23:00:00;1.25;16.9;3.7;5
2013-12-07 23:30:00;1.21;16.6;3.6;5.4
2013-12-08 00:00:00;1.16;15.8;3.6;4.9
2013-12-08 00:30:00;1.15;14.8;3.6;5.3
2013-12-08 01:00:00;1.16;13.6;3.6;5.3
2013-12-08 01:30:00;1.16;13.3;3.6;5.1
2013-12-08 02:00:00;1.05;16.8;3.5;5.3
2013-12-08 02:30:00;1.04;19.8;3.6;5
2013-12-08 03:00:00;0.92;19.1;3.4;5.1
2013-12-08 03:30:00;0.91;22.5;3.5;5
2013-12-08 04:00:00;0.92;22.2;3.4;4.8
2013-12-08 04:30:00;0.89;30.3;3.4;4.8
2013-12-08 05:00:00;0.88;31.7;3.5;4.5
2013-12-08 05:30:00;0.78;38.9;3.6;4.8
2013-12-08 06:00:00;0.76;40.9;3.5;4.3
2013-12-08 06:30:00;0.76;44.2;3.6;4.9
2013-12-08 07:00:00;0.75;44.7;3.7;5.3
2013-12-08 07:30:00;0.8;49.1;3.8;5.6
2013-12-08 08:00:00;0.79;52;3.9;5.9
2013-12-08 08:30:00;0.77;53.3;3.9;5.7
2013-12-08 09:00:00;0.79;55.1;3.9;5.4
2013-12-08 09:30:00;0.75;52.8;3.8;5.4
2013-12-08 10:00:00;0.75;55.7;3.9;5
2013-12-08 10:30:00;0.69;52.5;3.9;5.1
2013-12-08 11:00:00;0.66;55.3;3.8;4.7
2013-12-08 11:30:00;0.72;56.1;3.9;5.3
2013-12-08 12:00:00;0.65;58.5;3.9;4.9
2013-12-08 12:30:00;0.6;61.1;3.8;5.7
2013-12-08 13:00:00;0.59;60.8;3.7;5
2013-12-08 13:30:00;0.56;61.8;3.7;6.1
2013-12-08 14:00:00;0.53;62.5;3.7;4.8
2013-12-08 14:30:00;0.54;62.8;3.7;4.8
2013-12-08 15:00:00;0.52;63.6;3.7;4.9
2013-12-08 15:30:00;0.48;66.2;3.6;5
2013-12-08 16:00:00;0.46;68.1;3.7;5.9
2013-12-08 16:30:00;0.43;70.5;3.8;5.6
2013-12-08 17:00:00;0.44;71.2;3.8;4.2
2013-12-08 17:30:00;0.43;71.7;3.8;4.4
2013-12-08 18:00:00;0.42;72.3;3.8;6.3
2013-12-08 18:30:00;0.42;76.3;3.9;4.8
2013-12-08 19:00:00;0.4;77.4;3.8;5.3
2013-12-08 19:30:00;0.43;77.7;4.1;4.8
2013-12-08 20:00:00;0.38;79.8;4;4.3
2013-12-08 20:30:00;0.41;83.5;4.2;7.4
2013-12-08 21:00:00;0.42;82;4.2;5.4
2013-12-08 21:30:00;0.39;89.2;4.1;8
2013-12-08 22:00:00;0.38;80.3;4;5.3
2013-12-08 22:30:00;0.38;81.9;3.9;4.3
2013-12-08 23:00:00;0.37;86;4;5
2013-12-08 23:30:00;0.37;87.5;4.1;5.1
2013-12-09 00:00:00;0.37;93.9;4.2;5
2013-12-09 00:30:00;0.37;88.2;4;5
2013-12-09 01:00:00;0.36;95.2;4;4.7
2013-12-09 01:30:00;0.37;87.7;4.1;5.1
2013-12-09 02:00:00;0.36;100.8;3.9;4.5
2013-12-09 02:30:00;0.35;101.6;4;8
2013-12-09 03:00:00;0.36;102.3;4;7.7
2013-12-09 03:30:00;0.35;103.3;4;7.1
2013-12-09 04:00:00;0.36;105.2;4.1;6.9
2013-12-09 04:30:00;0.36;103.8;4;7.4
2013-12-09 05:00:00;0.34;103;3.9;7.1
2013-12-09 05:30:00;0.35;109.1;3.9;7.1
2013-12-09 06:00:00;0.37;98.3;3.5;7.7
2013-12-09 06:30:00;0.34;106.7;3.7;6.7
2013-12-09 07:00:00;0.38;114.8;4;7.7
2013-12-09 07:30:00;0.36;116.5;4.1;7.1
2013-12-09 08:00:00;0.38;105.4;4.1;6.5
2013-12-09 08:30:00;0.35;116.2;4.2;6.9
2013-12-09 09:00:00;0.36;116.7;4.5;6.9
2013-12-09 09:30:00;0.32;118.3;4.1;6.9
2013-12-09 10:00:00;0.33;114.3;4.3;6.5
2013-12-09 10:30:00;0.32;116.1;4.3;6.9
2013-12-09 11:00:00;0.31;117;4.4;6.5
2013-12-09 11:30:00;0.3;116.5;4.5;6.5
2013-12-09 12:00:00;0.28;136;4.5;6.5
2013-12-09 12:30:00;0.3;133.3;4.4;6.7
2013-12-09 13:00:00;0.32;141;4.6;6.7
2013-12-09 13:30:00;0.3;140.7;4.4;6.9
2013-12-09 14:00:00;0.29;145.2;4.4;6.7
2013-12-09 14:30:00;0.28;149;4.2;6.1
2013-12-09 15:00:00;0.31;144.5;4.7;6.7
2013-12-09 15:30:00;0.28;149.8;4.3;6.7
2013-12-09 16:00:00;0.32;145.9;4.5;6.7
2013-12-09 16:30:00;0.34;144.3;4.6;6.1
2013-12-09 17:00:00;0.31;151.9;4.4;6.5
2013-12-09 17:30:00;0.33;151.5;4.4;6.7
2013-12-09 18:00:00;0.33;156.7;4.1;6.3
2013-12-09 18:30:00;0.37;158.9;4;6.1
2013-12-09 19:00:00;0.36;157.6;4;6.7
2013-12-09 19:30:00;0.37;161.3;3.9;6.5
2013-12-09 20:00:00;0.4;160.7;4;6.5
2013-12-09 20:30:00;0.36;161.8;3.9;6.1
2013-12-09 21:00:00;0.35;164.1;3.9;6.3
2013-12-09 21:30:00;0.36;159.1;4.1;6.5
2013-12-09 22:00:00;0.33;156.9;3.9;5.7
2013-12-09 22:30:00;0.34;150.8;3.6;6.5
2013-12-09 23:00:00;0.37;145.9;3.6;5.7
2013-12-09 23:30:00;0.34;138.9;3.6;6.1
2013-12-10 00:00:00;0.34;139.6;3.9;5.7
2013-12-10 00:30:00;0.33;141.8;3.9;6.3
2013-12-10 01:00:00;0.35;140.7;3.6;6.1
2013-12-10 01:30:00;0.33;144.5;3.6;5.7
2013-12-10 02:00:00;0.32;143.7;3.7;5.9
2013-12-10 02:30:00;0.31;148.5;3.1;4.2
2013-12-10 03:00:00;0.35;138.8;2.6;5.9
2013-12-10 03:30:00;0.41;70.2;2.5;2.1
2013-12-10 04:00:00;0.46;33.4;2.4;2
2013-12-10 04:30:00;0.5;28.7;2.6;3
2013-12-10 05:00:00;0.61;16.5;2.6;3.2
2013-12-10 05:30:00;0.75;10.9;2.7;3.4
2013-12-10 06:00:00;0.76;11;2.7;3.4
2013-12-10 06:30:00;0.68;10.1;2.7;3.6
2013-12-10 07:00:00;0.73;10.4;2.8;4.2
2013-12-10 07:30:00;0.78;9.8;2.9;4.3
2013-12-10 08:00:00;0.84;0.6;2.9;4.2
2013-12-10 08:30:00;0.81;356.1;2.9;4.7
2013-12-10 09:00:00;0.79;354.4;2.9;4.8
2013-12-10 09:30:00;0.74;354.4;2.8;4.9
2013-12-10 10:00:00;0.91;1.9;3;5.1
2013-12-10 10:30:00;1.08;4;3.3;4.8
2013-12-10 11:00:00;1.19;0.9;3.4;5.1
2013-12-10 11:30:00;1.27;359.6;3.5;5.1
2013-12-10 12:00:00;1.24;359.6;3.4;5.1
2013-12-10 12:30:00;1.33;1.9;3.5;5.3
2013-12-10 13:00:00;1.35;1;3.6;5.4
2013-12-10 13:30:00;1.48;359.5;3.7;5.1
2013-12-10 14:00:00;1.52;358.7;3.7;5.7
2013-12-10 14:30:00;1.57;0.8;3.8;5
2013-12-10 15:00:00;1.54;355.3;3.8;5.6
2013-12-10 15:30:00;1.55;358.5;3.8;5.3
2013-12-10 16:00:00;1.53;359;3.8;5.9
2013-12-10 16:30:00;1.6;0.3;3.9;5.7
2013-12-10 17:00:00;1.67;2.2;3.9;5.1
2013-12-10 17:30:00;1.72;2.3;3.9;6.1
2013-12-10 18:00:00;1.72;1.8;4.1;6.7
2013-12-10 18:30:00;1.92;3.5;4.3;5.7
2013-12-10 19:00:00;1.93;2.4;4.3;6.7
2013-12-10 19:30:00;1.83;357.7;4;5.9
2013-12-10 20:00:00;1.95;356.2;4.2;6.3
2013-12-10 20:30:00;1.89;352.4;4.1;5.7
2013-12-10 21:00:00;1.99;353.5;4.3;6.7
2013-12-10 21:30:00;1.93;0.7;4.3;6.3
2013-12-10 22:00:00;1.89;353;4.3;5.9
2013-12-10 22:30:00;1.87;352.9;4.2;6.5
2013-12-10 23:00:00;1.8;351.4;4.3;6.7
2013-12-10 23:30:00;1.67;355.9;4.2;5.9
2013-12-11 00:00:00;1.62;350.5;4.1;5
2013-12-11 00:30:00;1.72;347.5;4;5.7
2013-12-11 01:00:00;1.64;349.6;4;5.4
2013-12-11 01:30:00;1.63;347;3.9;6.1
2013-12-11 02:00:00;1.59;351.2;4.1;5.7
2013-12-11 02:30:00;1.53;356.4;4;5.9
2013-12-11 03:00:00;1.53;353.6;3.9;5.9
2013-12-11 03:30:00;1.58;353.3;3.9;6.1
2013-12-11 04:00:00;1.61;348.4;3.9;5.9
2013-12-11 04:30:00;1.66;347.8;4;5.1
2013-12-11 05:00:00;1.58;354.5;3.9;5.6
2013-12-11 05:30:00;1.74;358.8;4.1;5.9
2013-12-11 06:00:00;1.83;352.6;4.1;5.1
2013-12-11 06:30:00;1.66;357.7;4;5.6
2013-12-11 07:00:00;1.51;12;3.9;6.1
2013-12-11 07:30:00;1.41;18.7;3.7;5.7
2013-12-11 08:00:00;1.34;16;3.6;5.3
2013-12-11 08:30:00;1.37;18.3;3.7;5.1
2013-12-11 09:00:00;1.26;10.6;3.6;4.7
2013-12-11 09:30:00;1.34;13.7;3.7;5.1
2013-12-11 10:00:00;1.37;15.3;3.7;4.9
2013-12-11 10:30:00;1.21;14.6;3.4;5.4
2013-12-11 11:00:00;1.23;10.6;3.5;5
2013-12-11 11:30:00;1.26;12.9;3.5;5.1
2013-12-11 12:00:00;1.21;14.8;3.5;5
2013-12-11 12:30:00;1.19;11.4;3.4;4.8
2013-12-11 13:00:00;1.14;10.2;3.3;4.5
2013-12-11 13:30:00;1.27;9.3;3.5;4.8
2013-12-11 14:00:00;1.26;15.4;3.5;4.7
2013-12-11 14:30:00;1.22;18.8;3.5;4.7
2013-12-11 15:00:00;1.23;26.8;3.6;6.9
2013-12-11 15:30:00;1.17;27.2;3.6;6.9
2013-12-11 16:00:00;1.16;33.7;3.6;7.1
2013-12-11 16:30:00;1.2;29.9;3.6;7.1
2013-12-11 17:00:00;1.19;35.2;3.6;6.9
2013-12-11 17:30:00;1.15;36;3.7;6.9
2013-12-11 18:00:00;1.13;35.7;3.6;6.7
2013-12-11 18:30:00;1.09;32.7;3.5;6.9
2013-12-11 19:00:00;1.04;38.8;3.5;6.5
2013-12-11 19:30:00;1.02;38.1;3.4;6.5
2013-12-11 20:00:00;1.13;39;3.6;6.7
2013-12-11 20:30:00;1.05;41.3;3.6;5.9
2013-12-11 21:00:00;0.98;38.9;3.5;5.9
2013-12-11 21:30:00;0.93;44.6;3.6;6.1
2013-12-11 22:00:00;0.9;51.1;3.5;6.3
2013-12-11 22:30:00;0.84;48;3.5;6.1
2013-12-11 23:00:00;0.82;55.8;3.6;6.1
2013-12-11 23:30:00;0.83;62.8;3.6;5.9
2013-12-12 00:00:00;0.82;51.1;3.3;5.9
2013-12-12 00:30:00;0.83;56.6;3.6;5.7
2013-12-12 01:00:00;0.86;57.5;3.8;5.4
2013-12-12 01:30:00;0.84;62.3;3.9;5.4
2013-12-12 02:00:00;0.86;65.2;3.9;5.4
2013-12-12 02:30:00;0.81;63.8;3.8;5.6
2013-12-12 03:00:00;0.83;62.8;3.8;4.9
2013-12-12 03:30:00;0.83;67.2;3.8;5.6
2013-12-12 04:00:00;0.74;65;3.7;5.4
2013-12-12 04:30:00;0.83;76.3;3.9;4.9
2013-12-12 05:00:00;0.76;74.7;3.7;8.3
2013-12-12 05:30:00;0.73;76.1;3.6;8.3
2013-12-12 06:00:00;0.75;81.5;3.8;7.4
2013-12-12 06:30:00;0.72;83.7;3.7;7.7
2013-12-12 07:00:00;0.74;73.7;3.7;4.8
2013-12-12 07:30:00;0.61;69.7;3.4;8
2013-12-12 08:00:00;0.64;63.5;3.3;8
2013-12-12 08:30:00;0.62;62.2;3.1;7.4
2013-12-12 09:00:00;0.65;69.2;3.2;7.7
2013-12-12 09:30:00;0.67;63.7;3.1;8
2013-12-12 10:00:00;0.63;51.3;3.1;8
2013-12-12 10:30:00;0.7;68.5;3.3;7.4
2013-12-12 11:00:00;0.72;39.5;2.9;7.1
2013-12-12 11:30:00;0.8;27.4;2.9;3.2
2013-12-12 12:00:00;0.85;18.6;3;3.8
2013-12-12 12:30:00;0.89;9.9;3.1;3.8
2013-12-12 13:00:00;0.91;4.6;3.1;4.3
2013-12-12 13:30:00;0.92;3.5;3.1;4.2
2013-12-12 14:00:00;0.93;356.7;3;4.3
2013-12-12 14:30:00;0.9;0.4;3.1;4
2013-12-12 15:00:00;0.86;357.3;3.1;4.2
2013-12-12 15:30:00;0.82;357.9;3;4
2013-12-12 16:00:00;0.84;353.2;3;3.4
2013-12-12 16:30:00;0.82;350.8;3;4.3
2013-12-12 17:00:00;0.78;356.4;3;3.8
2013-12-12 17:30:00;0.7;357.5;2.9;4.2
2013-12-12 18:00:00;0.64;0.5;2.9;4.1
2013-12-12 18:30:00;0.6;7.3;2.9;4.1
2013-12-12 19:00:00;0.59;2.6;2.9;4.2
2013-12-12 19:30:00;0.59;3.9;3;4
2013-12-12 20:00:00;0.57;9.7;2.9;4
2013-12-12 20:30:00;0.59;11.1;3;4.2
2013-12-12 21:00:00;0.59;7.8;3;4.4
2013-12-12 21:30:00;0.65;10.5;3;3.9
2013-12-12 22:00:00;0.69;15.8;3.1;4.4
2013-12-12 22:30:00;0.69;20.5;3.1;4.8
2013-12-12 23:00:00;0.75;21.7;3.2;4.8
2013-12-12 23:30:00;0.72;17.1;3.1;4.7
2013-12-13 00:00:00;0.76;22.3;3.3;4.8
2013-12-13 00:30:00;0.78;25;3.3;4.7
2013-12-13 01:00:00;0.76;23.6;3.3;5
2013-12-13 01:30:00;0.77;25.2;3.3;4.5
2013-12-13 02:00:00;0.8;24.8;3.4;5
2013-12-13 02:30:00;0.76;24.5;3.3;5.4
2013-12-13 03:00:00;0.75;25;3.4;5.4
2013-12-13 03:30:00;0.75;27.8;3.5;4.7
2013-12-13 04:00:00;0.72;25.3;3.4;5.4
2013-12-13 04:30:00;0.7;25.3;3.4;4.9
2013-12-13 05:00:00;0.69;22.2;3.5;5.1
2013-12-13 05:30:00;0.65;23.7;3.4;5.3
2013-12-13 06:00:00;0.55;23.3;3.2;5.6
2013-12-13 06:30:00;0.57;24.7;3.3;5.3
2013-12-13 07:00:00;0.56;24.2;3.3;5.3
2013-12-13 07:30:00;0.54;22.2;3.3;4.9
2013-12-13 08:00:00;0.57;22.7;3.2;5
2013-12-13 08:30:00;0.53;24.5;3.2;5.1
2013-12-13 09:00:00;0.55;23.7;3.2;4.9
2013-12-13 09:30:00;0.53;23;3.2;4.7
2013-12-13 10:00:00;0.5;23.4;3.2;5
2013-12-13 10:30:00;0.53;23.8;3.2;5.1
2013-12-13 11:00:00;0.55;24.9;3;4.8
2013-12-13 11:30:00;0.58;21.2;2.9;4.8
2013-12-13 12:00:00;0.59;16.9;2.9;4.7
2013-12-13 12:30:00;0.58;20.7;2.8;4.3
2013-12-13 13:00:00;0.56;19.7;2.9;4.8
2013-12-13 13:30:00;0.56;18.4;2.8;4.8
2013-12-13 14:00:00;0.56;20.8;2.9;4.4
2013-12-13 14:30:00;0.6;17.2;2.9;4.8
2013-12-13 15:00:00;0.61;20.7;2.9;4.8
2013-12-13 15:30:00;0.55;20.8;2.9;4.7
2013-12-13 16:00:00;0.57;25;2.7;4.7
2013-12-13 16:30:00;0.53;20.6;2.8;4.5
2013-12-13 17:00:00;0.51;24.3;2.8;4.4
2013-12-13 17:30:00;0.51;24.7;2.8;4.7
2013-12-13 18:00:00;0.47;24.6;2.8;4.3
2013-12-13 18:30:00;0.45;25.6;2.7;4.3
2013-12-13 19:00:00;0.46;26.4;2.8;4.2
2013-12-13 19:30:00;0.45;30.7;2.9;4.3
2013-12-13 20:00:00;0.42;34.7;2.9;4.1
2013-12-13 20:30:00;0.39;39.1;2.9;4.2
2013-12-13 21:00:00;0.38;43;3;4
2013-12-13 21:30:00;0.36;44.4;3;3.9